Location: Remedello Sotto
(45.2500°N, 10.3667°E)
Time: 05:16:55
(UTC+00:00)

CZ-4C R/B - Pass Details

Date: 03 February 2023
Orbit: 456 x 611 km, 98.1° (Epoch: 29 March)

Event Time Altitude Azimuth Distance (km) Brightness Sun altitude
Rises 18:07:07 0° 6° (N) 2,710 6.7 -17.6°
Reaches altitude 10° 18:09:22 10° 359° (N) 1,784 5.9 -18.0°
Maximum altitude 18:12:57 39° 290° (WNW) 786 4.6 -18.7°
Drops below altitude 10° 18:16:20 10° 221° (SW) 1,687 6.4 -19.3°
Sets 18:18:26 0° 213° (SSW) 2,540 7.3 -19.6°
